GALAXY 19

导读

GALAXY 19(曾用名Intelsat Americas 9,IA-9)是卢森堡国际通信卫星组织(Intelsat)所有的地球静止轨道通信卫星,由美国Space Systems/Loral公司基于LS-1300平台建造,2008年9月24日,由美国使用Zenit-3SL运载火箭发射升空。定点西经97度轨道位置,配备C、Ku混合频段转发器,设计服务寿命15年,为北美、中美及加勒比地区提供通信广播服务,发射质量达4692千克。

基本信息
目录编号:
33376
目录名称:
GALAXY 19
国际标识:
2008-045A
轨道中心:
EARTH
卫星名称:
GALAXY 19
卫星全名:
--
卫星状态:
在轨 (已飞行6561 天)
发射日期:
2008-09-24 UTC
国别 :
美国 (US)
星等 :
--
轨道信息
数据来源 国际轨道数据 AOE轨道数据
星历时间 2026-09-10T21:35:39+0800
11小时前
查看轨道信息
2026-09-06T13:00:00+0800
4天前
查看轨道信息
半长轴 42164.532km 42164.84km
偏心率 0.0002454 0.000262
轨道倾角 0.043° 0.044°
近地点辐角 275.762° 289.879°
升交点赤经 252.608° 254.047°
平近点角 288.138° 139.377°
近地点 35776.047km 35775.655km
远地点 35796.743km 35797.751km
周期 1436.087分钟 1436.102分钟
每日圈数 1.002725 1.002714
详细信息
使用方式:
暂无
2D轨道图
3D轨道图
轨道高度分析图
轨道倾角分析图
轨道综合分析图
查看轨道综合分析图
与全量物体交会距离演化趋势
与全量物体交会风险概率演化趋势